THOR ABLESTAR DEB, 753

Orbit data source: Space-Track

THOR ABLESTAR DEB, 753 is space debris in LEO originally from a launch on Thu, 05 Dec 1963 UTC launched from the Air Force Western Test Range (AFWTR). Debris objects in space refer to the collection of defunct objects orbiting the Earth. Examples of debris include non-operational satellites, rocket bodies, and fragments generated from explosions, collisions, or faulty payload assembly.

Loading next visibility...
Identifier
753, 1963-049F
Orbit
LEO
Country
Flag of USUS
Related business
Manufacturer
Unknown
Mission
Spacecraft
Bus & Motor
Unknown
Mass
Unknown
Launch date (UTC)
1963-12-05 (62 years ago)
Launch vehicle
Unknown
Launch site
Air Force Western Test Range (AFWTR)
Object type
Payload
Rocket body
Debris
Shape & HBR
Unknown
Radar Cross Section
Small (<0.1 m²)

Expand to show TLE details & history
Last TLE update: 14 hours ago

TLE from 14 hours ago
0 THOR ABLESTAR DEB
1 00753U 63049F   25260.97035545  .00000229  00000-0  31929-3 0  9990
2 00753  89.9091  75.1101 0025064 275.4049 200.1543 13.54774108 43693
Epoch: 2025-09-17T23:17Z
TLE epoch observation values (Epoch: 2025-09-17T23:17:18.71Z)
Latitude
64.62183°
Longitude
-91.54716°
Altitude
1,083.475 km
Speed
7.308 km/s
True Right ascension
16h 59m 40s
True Declination
64° 29' 39"
Sunlit
Object was in daylight at epoch
Visualization orbit readout
Latitude
Unknown
Longitude
Unknown
Altitude
Unknown
Speed
Unknown
Apparent Right ascension
Unknown
Apparent Declination
Unknown
Sunlit
N/A
Visualization observer readout
Local Sidereal Time
05:39:57
Azimuth
Unknown
Elevation
Unknown
Doppler factor
Unknown
Orbital elements
Apogee altitude
1,070.41 km
Perigee altitude
1,033.166 km
Semi-major axis
7,429.925 km
Eccentricity
0.00251
Inclination
89.9091°
RAAN
75.1101°
Arg. of periapsis
275.4049°
True anomaly
200.05563°
Mean anomaly
200.1543°
Eccentric anomaly
200.10494°
Mean motion
3.38896 °/min
Orbital period
106.23 mins
BSTAR
0.00031929
Loading maneuver chart data...
Computing Atmospheric mass density...
Loading historical data...
Loading historical data...
Loading historical data...
Loading historical data...
Loading historical data...
Loading historical data...
Loading historical data...

Documentation

Showing up to 5 results
|